Back to catalog

CZ-6A DEB

AliveSSO
NORAD 54432·DEBRIS·🇨🇳 China

Launched Nov 11, 2022 from Taiyuan Satellite Launch Center

Loading…

Next Passes (next 24 hours)

TLE

FreshSource: Space-Track

Epoch: Sep 14, 2026, 11:37 UTC

1 54432U 22151FG  26257.48409032  .00002172  00000-0  11100-2 0  9998
2 54432  98.9965 261.8649 0171226  96.9092 265.1589 14.09324236196125

Track CZ-6A DEB in real time with AllMySat

Download on the App Store